Погода в Втрое

Россия / Санкт-Петербург и Ленинградская область     59°00′32″N   27°47′21″E
темп.,
°C
ветер,
м/с
пор.,
м/с
влажн.,
%
обл.,
%
осадки,
мм/ч
давл.,
гПа
погр.,
м
6 августа, пт
пт600:00+14ююв237982 0.0 1015157
03:00+12всв22855 0.0 101576
06:00+11всв34892 0.0 1015120
09:00+16св48563 0.0 1014569
12:00+20всв585082 0.0 10131899
15:00+20всв6950100 0.0 10112038
18:00+19всв7956100 0.0 10111489
21:00+15всв61077100 0.0 1011793
7 августа, сб
сб700:00+14всв61086100 0.0 1010635
03:00+13св61389100 0.0 1008470
06:00+14всв61390100 0.0 1007592
09:00+16всв61286100 0.1 1006744
12:00+15всв61192100 0.5 1006591
15:00+16всв51095100 1.4 1005523
18:00+16в3798100 9.9 1004346
21:00+17юв359885 10.3 1005296
8 августа, вс
вс800:00+18юз358521 0.0 1006267
03:00+17ююз2486100 0.0 1007263
06:00+16ююз4787100 0.0 1008500
09:00+18юз468799 0.1 1008559
12:00+19юз347989 0.1 1010645
15:00+21юз246914 0.1 1011695
18:00+21ююз3470100 0.0 1011491
21:00+19ююв2282100 0.1 101218
9 августа, пн
пн900:00+18юв3686100 0.0 1012143
03:00+17юв4786100 0.0 1012175
06:00+16вюв4891100 1.0 1011236
09:00+18ююв5893100 1.6 1011528
12:00+19ююз689298 0.6 1012669
15:00+20ююз698362 1.6 1013776
18:00+20зюз610845 0.9 1014858
21:00+18зюз47855 1.3 1015255
10 августа, вт
вт1000:00+18юз47841 1.1 1016296
03:00+17зюз478518 1.3 1017328
06:00+16юз46881 0.0 1017318
09:00+18юз468350 0.1 1018634
12:00+19юз4575100 0.1 1018810
15:00+20ююз3466100 0.1 1018784
18:00+21ю2462100 0.0 1017472
21:00+19юв3371100 0.0 101773